Location: Observatoire
(46.1952°N, 5.3391°E)
Time: 22:52:59
(UTC+01:00)

Tiros 1 despin weight - Pass Details

Date: 19 February 2026
Orbit: 556 x 593 km, 48.2° (Epoch: 9 March)

Event Time Altitude Azimuth Distance (km) Brightness Sun altitude
Rises 16:28:41 0° 254° (WSW) 2,737 ? 15.0°
Reaches altitude 10° 16:30:56 10° 255° (WSW) 1,839 ? 14.7°
Maximum altitude 16:35:09 86° 344° (NNW) 562 ? 14.1°
Drops below altitude 10° 16:39:21 10° 74° (ENE) 1,837 ? 13.5°
Sets 16:41:36 0° 75° (ENE) 2,734 ? 13.2°
